Pine River, MN

1:31 AM CDT on May 27, 2018 (GMT -0500)
Pine River Regional

Weather History for KPWC - January, 2014

Change the Weather History Date:

Thursday, January 16, 2014

  Actual Average Record
Temperature  
Mean Temperature 16 °F -  
Max Temperature 33 °F 17 °F 37 °F (1999)
Min Temperature 0 °F 0 °F -36 °F (2009)
Degree Days  
Heating Degree Days 48    
Moisture  
Dew Point 6 °F    
Average Humidity 77    
Maximum Humidity 93    
Minimum Humidity 66    
Precipitation  
Precipitation 0.01 in - - ()
Sea Level Pressure  
Sea Level Pressure 29.62 in    
Wind  
Wind Speed 10 mph (NW)    
Max Wind Speed 24 mph    
Max Gust Speed 34 mph    
Visibility 7 miles    
Events Snow    
Averages and records for this station are not official NWS values.
T = Trace of Precipitation, MM = Missing Value Source: NWS Daily Summary

Daily Weather History Graph

Daily Weather History Graph

Search for Another Location

Airport or City:

Astronomy

Jan. 16, 2014 Rise Set
Actual Time 7:57 AM CST 4:57 PM CST
Civil Twilight 7:23 AM CST 5:31 PM CST
Nautical Twilight 6:45 AM CST 6:09 PM CST
Astronomical Twilight 6:09 AM CST 6:45 PM CST
Moon 5:56 PM CST (1/16) 7:45 AM CST (1/16)
Length of Visible Light 10h 08m
Length of Day
9h 00m
Full, 100% of the Moon is Illuminated
Jan 16
Full
Jan 23
Last Quarter
Jan 30
New
Feb 6
First Quarter
Feb 14
Full

Hourly Weather History & Observations

Time (CST) Temp. Windchill Dew Point Humidity Pressure Visibility Wind Dir Wind Speed Gust Speed Precip Events Conditions
12:12 AM 26.6 °F 22.6 °F 23.0 °F 86% 29.29 in 10.0 mi WSW 3.5 mph - N/A   Mostly Cloudy
12:33 AM 26.6 °F 22.6 °F 23.0 °F 86% 29.29 in 10.0 mi WSW 3.5 mph - N/A   Mostly Cloudy
12:53 AM 26.6 °F - 24.8 °F 93% 29.29 in 10.0 mi Calm Calm - N/A   Overcast
1:12 AM 28.4 °F 24.6 °F 24.8 °F 86% 29.29 in 10.0 mi West 3.5 mph - 0.01 in   Overcast
1:33 AM 28.4 °F 24.6 °F 26.6 °F 93% 29.29 in 10.0 mi WSW 3.5 mph - 0.01 in   Overcast
1:52 AM 30.2 °F 25.4 °F 26.6 °F 86% 29.28 in 10.0 mi West 4.6 mph - N/A   Overcast
2:13 AM 32.0 °F 25.6 °F 28.4 °F 87% 29.29 in 10.0 mi West 6.9 mph - N/A   Overcast
2:33 AM 32.0 °F 24.8 °F 28.4 °F 87% 29.29 in 10.0 mi WNW 8.1 mph - N/A   Overcast
2:53 AM 33.8 °F 28.6 °F 28.4 °F 81% 29.29 in 10.0 mi West 5.8 mph - N/A   Overcast
3:13 AM 33.8 °F 28.6 °F 28.4 °F 81% 29.30 in 10.0 mi West 5.8 mph - N/A   Overcast
3:32 AM 33.8 °F 27.7 °F 28.4 °F 81% 29.30 in 10.0 mi WNW 6.9 mph - N/A   Overcast
3:52 AM 33.8 °F 27.0 °F 28.4 °F 81% 29.31 in 7.0 mi WNW 8.1 mph - N/A Snow Light Snow
4:12 AM 32.0 °F 18.9 °F 28.4 °F 87% 29.31 in 5.0 mi NW 24.2 mph 29.9 mph N/A Snow Light Snow
4:33 AM 28.4 °F 15.4 °F 23.0 °F 80% 29.35 in 3.0 mi NW 19.6 mph 31.1 mph N/A Snow Light Snow
4:53 AM 24.8 °F 12.9 °F 19.4 °F 80% 29.37 in 1.5 mi NW 13.8 mph 33.4 mph N/A Snow Light Snow
5:13 AM 23.0 °F 8.3 °F 17.6 °F 80% 29.39 in 1.8 mi NW 19.6 mph 34.5 mph N/A Snow Light Snow
5:33 AM 21.2 °F 6.8 °F 14.0 °F 74% 29.40 in 3.0 mi NW 17.3 mph 29.9 mph N/A   Haze
5:52 AM 21.2 °F 8.9 °F 12.2 °F 68% 29.42 in 7.0 mi NNW 12.7 mph 25.3 mph N/A   Overcast
6:12 AM 19.4 °F 6.0 °F 12.2 °F 74% 29.43 in 7.0 mi WNW 13.8 mph 25.3 mph N/A   Overcast
6:33 AM 19.4 °F 6.6 °F 10.4 °F 68% 29.43 in 10.0 mi WNW 12.7 mph 20.7 mph N/A   Overcast
6:53 AM 17.6 °F 3.7 °F 8.6 °F 68% 29.44 in 10.0 mi WNW 13.8 mph 19.6 mph N/A   Overcast
7:13 AM 17.6 °F 4.3 °F 8.6 °F 68% 29.44 in 10.0 mi WNW 12.7 mph 24.2 mph N/A   Overcast
7:33 AM 17.6 °F 8.2 °F 8.6 °F 68% 29.44 in 10.0 mi NW 6.9 mph 16.1 mph N/A   Overcast
7:53 AM 15.8 °F 2.1 °F 6.8 °F 68% 29.46 in 10.0 mi NW 12.7 mph 24.2 mph N/A   Overcast
8:13 AM 12.2 °F -3.1 °F 6.8 °F 79% 29.47 in 10.0 mi NNW 13.8 mph 24.2 mph N/A   Overcast
8:31 AM 12.2 °F -4.3 °F 3.2 °F 67% 29.50 in 4.0 mi NNW 16.1 mph 26.5 mph N/A   Haze
8:53 AM 10.4 °F -8.6 °F 1.4 °F 67% 29.51 in 7.0 mi NNW 20.7 mph 28.8 mph N/A   Overcast
9:12 AM 10.4 °F -7.2 °F 1.4 °F 67% 29.53 in 7.0 mi NW 17.3 mph 23.0 mph N/A   Overcast
9:33 AM 8.6 °F -6.3 °F 1.4 °F 73% 29.55 in 10.0 mi NNW 11.5 mph 18.4 mph N/A   Overcast
9:53 AM 8.6 °F -7.0 °F 1.4 °F 73% 29.56 in 7.0 mi NNW 12.7 mph 19.6 mph N/A   Overcast
10:13 AM 6.8 °F -12.4 °F -0.4 °F 72% 29.58 in 3.0 mi NW 18.4 mph 27.6 mph N/A   Haze
10:32 AM 6.8 °F -12.9 °F -2.2 °F 67% 29.60 in 3.0 mi NNW 19.6 mph 32.2 mph N/A   Haze
10:53 AM 5.0 °F -13.6 °F -2.2 °F 72% 29.61 in 5.0 mi NNW 16.1 mph 26.5 mph N/A   Haze
11:13 AM 5.0 °F -15.2 °F -4.0 °F 66% 29.62 in 5.0 mi NW 19.6 mph 27.6 mph N/A   Haze
11:33 AM 5.0 °F -14.2 °F -4.0 °F 66% 29.63 in 3.0 mi NNW 17.3 mph 28.8 mph N/A   Haze
11:53 AM 5.0 °F -14.7 °F -2.2 °F 72% 29.64 in 5.0 mi NNW 18.4 mph 27.6 mph N/A   Haze
12:13 PM 5.0 °F -10.8 °F -4.0 °F 66% 29.65 in 5.0 mi NNW 11.5 mph 28.8 mph N/A   Haze
12:32 PM 3.2 °F -17.1 °F -2.2 °F 78% 29.65 in 4.0 mi NNW 18.4 mph 25.3 mph N/A   Haze
12:52 PM 5.0 °F -14.2 °F -2.2 °F 72% 29.66 in 5.0 mi NNW 17.3 mph 24.2 mph N/A   Haze
1:13 PM 3.2 °F -14.6 °F -2.2 °F 78% 29.68 in 4.0 mi NW 13.8 mph 21.9 mph N/A   Haze
1:32 PM 5.0 °F -13.0 °F -2.2 °F 72% 29.68 in 5.0 mi NW 15.0 mph 23.0 mph N/A   Haze
1:53 PM 5.0 °F -11.6 °F -2.2 °F 72% 29.69 in 3.0 mi NW 12.7 mph 20.7 mph N/A   Haze
2:12 PM 5.0 °F -12.3 °F -2.2 °F 72% 29.70 in 4.0 mi NW 13.8 mph 23.0 mph N/A   Haze
2:33 PM 5.0 °F -11.6 °F -2.2 °F 72% 29.71 in 5.0 mi NNW 12.7 mph 23.0 mph N/A   Haze
2:52 PM 3.2 °F -14.6 °F -2.2 °F 78% 29.72 in 4.0 mi NW 13.8 mph 24.2 mph N/A   Haze
3:12 PM 3.2 °F -13.1 °F -2.2 °F 78% 29.74 in 5.0 mi NNW 11.5 mph 25.3 mph N/A   Haze
3:32 PM 3.2 °F -16.5 °F -2.2 °F 78% 29.75 in 2.5 mi NNW 17.3 mph 25.3 mph N/A   Haze
3:52 PM 3.2 °F -17.1 °F -4.0 °F 72% 29.76 in 5.0 mi NNW 18.4 mph 26.5 mph N/A   Haze
4:12 PM 3.2 °F -13.1 °F -4.0 °F 72% 29.77 in 7.0 mi NNW 11.5 mph 24.2 mph N/A   Overcast
4:33 PM 3.2 °F -13.1 °F -2.2 °F 78% 29.79 in 10.0 mi NW 11.5 mph 21.9 mph N/A   Overcast
4:51 PM 3.2 °F -13.9 °F -2.2 °F 78% 29.80 in 10.0 mi NW 12.7 mph 21.9 mph N/A   Overcast
5:13 PM 3.2 °F -13.9 °F -2.2 °F 78% 29.81 in 10.0 mi NW 12.7 mph 18.4 mph N/A   Overcast
5:33 PM 3.2 °F -14.6 °F -2.2 °F 78% 29.82 in 10.0 mi NW 13.8 mph 21.9 mph N/A   Overcast
5:53 PM 3.2 °F -13.9 °F -2.2 °F 78% 29.83 in 10.0 mi NW 12.7 mph 20.7 mph N/A   Overcast
6:13 PM 3.2 °F -11.3 °F -2.2 °F 78% 29.84 in 5.0 mi NW 9.2 mph 19.6 mph N/A   Haze
6:33 PM 3.2 °F -12.2 °F -0.4 °F 85% 29.85 in 5.0 mi NW 10.4 mph 18.4 mph N/A   Haze
6:53 PM 3.2 °F -10.3 °F -0.4 °F 85% 29.86 in 10.0 mi NW 8.1 mph 16.1 mph N/A   Overcast
7:13 PM 3.2 °F -12.2 °F -0.4 °F 85% 29.87 in 7.0 mi NW 10.4 mph 18.4 mph N/A   Overcast
7:32 PM 3.2 °F -13.9 °F -2.2 °F 78% 29.88 in 5.0 mi NNW 12.7 mph 21.9 mph N/A   Haze
7:52 PM 3.2 °F -14.6 °F -2.2 °F 78% 29.88 in 7.0 mi NNW 13.8 mph 23.0 mph N/A   Overcast
8:12 PM 3.2 °F -15.9 °F -2.2 °F 78% 29.88 in 7.0 mi NNW 16.1 mph 23.0 mph N/A   Overcast
8:33 PM 5.0 °F -13.0 °F -0.4 °F 78% 29.89 in 7.0 mi NNW 15.0 mph 21.9 mph N/A   Overcast
8:52 PM 5.0 °F -13.0 °F -0.4 °F 78% 29.90 in 5.0 mi NNW 15.0 mph 26.5 mph N/A   Haze
9:13 PM 3.2 °F -15.9 °F -2.2 °F 78% 29.91 in 5.0 mi NNW 16.1 mph 31.1 mph N/A   Haze
9:33 PM 3.2 °F -16.5 °F -2.2 °F 78% 29.92 in 10.0 mi NNW 17.3 mph 25.3 mph N/A   Overcast
9:53 PM 3.2 °F -13.9 °F -2.2 °F 78% 29.93 in 10.0 mi NNW 12.7 mph 23.0 mph N/A   Mostly Cloudy
10:13 PM 1.4 °F -16.9 °F -2.2 °F 85% 29.94 in 10.0 mi NNW 13.8 mph 19.6 mph N/A   Mostly Cloudy
10:32 PM 1.4 °F -15.3 °F -4.0 °F 78% 29.95 in 10.0 mi NNW 11.5 mph 19.6 mph N/A   Mostly Cloudy
10:53 PM 1.4 °F -15.3 °F -4.0 °F 78% 29.95 in 10.0 mi NNW 11.5 mph 23.0 mph N/A   Scattered Clouds
11:13 PM 1.4 °F -15.3 °F -4.0 °F 78% 29.96 in 10.0 mi NNW 11.5 mph 19.6 mph N/A   Clear
11:33 PM -0.4 °F -14.7 °F -5.8 °F 78% 29.97 in 10.0 mi NNW 8.1 mph 17.3 mph N/A   Scattered Clouds
11:53 PM -0.4 °F -15.7 °F -5.8 °F 78% 29.97 in 10.0 mi NNW 9.2 mph 16.1 mph N/A   Scattered Clouds